[[{"header":{"parameterUnit":"m.s-1","parameterCategory":1,"la1":30.2991,"la2":30.254,"lo1":-89.0895,"lo2":-89.0444,"dy":0.0017,"dx":0.0017,"nx":28,"ny":28,"refTime":"2025-03-21T03:00:00:Z","depth":0,"parameterNumber":2,"parameterNumberName":"U-component_of_WINDS"},"data":[0,0,0,0,0,0,0,0,0,0,0,0,0,0,0,0,0,0,0,0,0,0,0,0,0,0,0,0,0,0,0,0,0,0,0,0,0,0,0,0,0,0,0,0,0,0,0,0,0,0,0,0,0,0,0,0,0,0,0.7576,0.7576,0,0.752,0.752,0.7519,0.7463,0.7462,0.7462,0.7461,0.7402,0.7401,0.7401,0,0,0,0,0,0,0,0,0,0,0,0,0,0.7635,0.7635,0.7577,0.7576,0.7575,0.752,0.752,0.7519,0.7463,0.7462,0.7462,0.7461,0.7403,0.7402,0.74,0,0,0,0,0,0,0,0,0,0,0,0,0,0.7598,0.7634,0.7577,0.7541,0.7537,0.7521,0.752,0.7519,0.7464,0.7462,0.7461,0.746,0.7403,0.7402,0.74,0.7414,0,0,0.7396,0.7396,0,0,0,0,0,0,0,0,0.76,0.7595,0.7547,0.7543,0.7539,0.7498,0.7519,0.7484,0.7464,0.7491,0.7461,0.746,0.7435,0.7431,0.7423,0.7412,0.7409,0.7396,0.7395,0.7395,0.7394,0,0,0,0,0,0,0,0.7603,0.7598,0.7554,0.7546,0.7541,0.7527,0.7521,0.7512,0.747,0.7489,0.7485,0.7479,0.7432,0.7424,0.7421,0.7408,0.7396,0.7395,0.7394,0.7394,0.7407,0.7408,0,0,0,0,0,0,0.7611,0.76,0.7556,0.7553,0.7567,0.7527,0.752,0.7512,0.747,0.7462,0.748,0.7477,0.7427,0.7422,0.7419,0.7433,0.7395,0.7394,0.7393,0.7406,0.7407,0.7409,0,0,0,0,0,0,0.7612,0.7607,0.7558,0.7575,0.7568,0.7528,0.7519,0.7512,0.7503,0.7463,0.7455,0.7479,0.7426,0.742,0.7416,0.743,0.7393,0.7392,0.7405,0.7406,0.7408,0.7462,0,0,0,0,0,0,0.7614,0.7608,0.7613,0.7576,0.7567,0.7557,0.752,0.7511,0.7501,0.7496,0.746,0.7453,0.7425,0.7418,0.7415,0.7428,0.7391,0.7403,0.7405,0.7407,0.7459,0.7465,0.7471,0,0,0,0,0,0.7616,0.763,0.7614,0.7609,0.7573,0.7558,0.7553,0.752,0.7502,0.7507,0.7482,0.7454,0.7429,0.7418,0.7414,0.7427,0.7402,0.7405,0.7407,0.7456,0.7464,0.7471,0,0,0,0,0,0,0.7669,0.7624,0.7606,0.7607,0.7587,0.7549,0.7553,0.7529,0.7513,0.7509,0.7469,0.7461,0.7462,0.7443,0.7432,0.7439,0.7412,0.7414,0.7451,0.7458,0.7464,0.7468,0.739,0,0,0,0,0,0.7681,0.7673,0.7634,0.764,0.763,0.7594,0.7586,0.7563,0.754,0.7531,0.7505,0.7483,0.7471,0.7463,0.7449,0.7456,0.7448,0.7462,0.7469,0.7474,0.7476,0.7479,0.7486,0.7417,0.7417,0.7417,0,0,0.7705,0.768,0.7677,0.765,0.7631,0.7624,0.7587,0.758,0.7575,0.7529,0.7524,0.7505,0.7478,0.748,0.7479,0.7465,0.7493,0.7477,0.7481,0.7481,0.7483,0.7489,0.7495,0.7419,0.7418,0.7418,0,0,0.7746,0.7726,0.7728,0.7711,0.7684,0.766,0.7661,0.7626,0.7612,0.7606,0.7572,0.7565,0.7543,0.7526,0.7515,0.7551,0.7526,0.7548,0.758,0.7583,0.7589,0.7593,0.7607,0.7613,0.755,0.755,0.755,0,0.7779,0.7767,0.7733,0.7729,0.7718,0.7678,0.7681,0.7665,0.7635,0.7628,0.7613,0.7586,0.7565,0.7563,0.7572,0.7564,0.7564,0.7552,0.7591,0.7595,0.7599,0.7612,0.7617,0.7553,0.7553,0.7552,0.7552,0,0.7811,0.7803,0.7809,0.7781,0.7771,0.7771,0.7736,0.773,0.7708,0.7686,0.7681,0.7655,0.7636,0.7633,0.7611,0.7628,0.762,0.7598,0.7571,0.7609,0.762,0.7625,0.7557,0.7556,0.7555,0.7554,0,0,0.7882,0.7837,0.7839,0.7827,0.7795,0.7788,0.7786,0.7768,0.7764,0.7745,0.7743,0.7726,0.7707,0.7694,0.7669,0.7673,0.7705,0.765,0.7649,0.7662,0.7723,0.774,0.7747,0.7688,0.7688,0.7689,0.7726,0,0.7918,0.7912,0.7882,0.7885,0.7879,0.7841,0.7839,0.782,0.7799,0.779,0.7767,0.7757,0.7731,0.7723,0.7725,0.77,0.7716,0.7697,0.7686,0.7686,0.7694,0.7752,0.777,0.7806,0.773,0.7731,0.7731,0,0.7958,0.7943,0.7946,0.7915,0.7911,0.7911,0.7892,0.7884,0.7861,0.7846,0.7833,0.7806,0.7802,0.7777,0.7772,0.7759,0.7753,0.774,0.7741,0.7739,0.7711,0.7752,0.7816,0.7822,0.7737,0.7737,0.7736,0,0.8011,0.7991,0.7991,0.7981,0.7945,0.7946,0.7931,0.7907,0.7898,0.7882,0.7876,0.786,0.7851,0.7839,0.7809,0.7793,0.7808,0.7779,0.7795,0.7796,0.78,0.7801,0.7865,0.7795,0.7795,0.7795,0.7795,0,0.8055,0.8058,0.8014,0.8014,0.8018,0.7983,0.7987,0.7968,0.7948,0.7943,0.7909,0.7906,0.7866,0.7858,0.7835,0.7835,0.7831,0.7819,0.7812,0.7822,0.7824,0.7817,0.7814,0.7797,0.7796,0.7796,0.7796,0,0.8114,0.8085,0.8082,0.8049,0.804,0.8045,0.8016,0.8014,0.7992,0.7988,0.7984,0.795,0.7939,0.7908,0.7889,0.7873,0.788,0.7868,0.7888,0.7885,0.7903,0.7902,0.7966,0.7973,0.7899,0.79,0.79,0,0.8144,0.8146,0.8114,0.8109,0.8095,0.8088,0.8079,0.8045,0.8038,0.8013,0.8015,0.8002,0.799,0.7975,0.7948,0.7934,0.7921,0.7945,0.7919,0.7929,0.7922,0.7923,0.7924,0.795,0.7951,0.7952,0.7953,0,0.8201,0.8186,0.8176,0.8161,0.8152,0.8138,0.8123,0.8121,0.8082,0.8076,0.8065,0.8056,0.8038,0.8025,0.8007,0.7991,0.7966,0.7961,0.7964,0.7974,0.7987,0.7981,0.7905,0.796,0.7959,0.7959,0.7958,0.7958,0.8246,0.8247,0.8225,0.8215,0.82,0.8186,0.8184,0.8162,0.8153,0.8136,0.8116,0.8108,0.8086,0.8059,0.8046,0.8039,0.8025,0.803,0.8031,0.8033,0.8038,0.7988,0.8035,0.8035,0.8035,0.8035,0.8034,0,0.8302,0.8286,0.8277,0.8257,0.8249,0.8227,0.8209,0.8204,0.8197,0.8179,0.8168,0.8157,0.8145,0.8118,0.8104,0.8104,0.8092,0.8101,0.8101,0.8098,0.805,0.8049,0.8111,0.8111,0.8111,0.8111,0.8111,0.8111,0.833,0.8331,0.8314,0.8307,0.8291,0.8283,0.8275,0.8263,0.8248,0.8237,0.8228,0.821,0.8189,0.8173,0.8162,0.8154,0.8151,0.8165,0.8153,0.8109,0.8102,0.8095,0.8094,0.8164,0.8164,0.8202,0.8202,0.8203]},{"header":{"parameterUnit":"m.s-1","parameterCategory":1,"la1":30.2991,"la2":30.254,"lo1":-89.0895,"lo2":-89.0444,"dy":0.0017,"dx":0.0017,"nx":28,"ny":28,"refTime":"2025-03-21T03:00:00:Z","depth":0,"parameterNumber":3,"parameterNumberName":"V-component_of_WINDS"},"data":[0,0,0,0,0,0,0,0,0,0,0,0,0,0,0,0,0,0,0,0,0,0,0,0,0,0,0,0,0,0,0,0,0,0,0,0,0,0,0,0,0,0,0,0,0,0,0,0,0,0,0,0,0,0,0,0,0,0,-5.3983,-5.3985,0,-5.4141,-5.4143,-5.4145,-5.4069,-5.4065,-5.4061,-5.4057,-5.4218,-5.4225,-5.4233,0,0,0,0,0,0,0,0,0,0,0,0,0,-5.3614,-5.3622,-5.3983,-5.3985,-5.3987,-5.4141,-5.4143,-5.4145,-5.407,-5.4065,-5.406,-5.4056,-5.4215,-5.4224,-5.4234,0,0,0,0,0,0,0,0,0,0,0,0,0,-5.3774,-5.3624,-5.3983,-5.3968,-5.3968,-5.414,-5.4143,-5.4146,-5.4071,-5.4065,-5.4059,-5.4053,-5.4212,-5.4224,-5.4235,-5.4431,0,0,-5.4272,-5.4277,0,0,0,0,0,0,0,0,-5.3765,-5.3787,-5.3968,-5.3969,-5.397,-5.4079,-5.4072,-5.4241,-5.4073,-5.4032,-5.4057,-5.405,-5.4176,-5.4191,-5.4234,-5.4438,-5.4445,-5.4273,-5.4281,-5.4286,-5.4289,0,0,0,0,0,0,0,-5.3754,-5.378,-5.4045,-5.3971,-5.3972,-5.3953,-5.3969,-5.4104,-5.4136,-5.4035,-5.403,-5.405,-5.4176,-5.4222,-5.4237,-5.4447,-5.4273,-5.4284,-5.4291,-5.4296,-5.482,-5.4826,0,0,0,0,0,0,-5.3744,-5.3771,-5.404,-5.405,-5.385,-5.3965,-5.3982,-5.405,-5.4134,-5.4141,-5.4055,-5.4046,-5.4205,-5.4223,-5.4242,-5.4477,-5.4286,-5.4297,-5.4304,-5.4813,-5.4822,-5.4829,0,0,0,0,0,0,-5.3736,-5.3768,-5.4034,-5.391,-5.3942,-5.3977,-5.4054,-5.4057,-5.4103,-5.4149,-5.4155,-5.4097,-5.4201,-5.4225,-5.4385,-5.4482,-5.4302,-5.4313,-5.4805,-5.4816,-5.4825,-5.4948,0,0,0,0,0,0,-5.3726,-5.3766,-5.3841,-5.3912,-5.3949,-5.4175,-5.406,-5.4064,-5.4124,-5.4114,-5.419,-5.4197,-5.4198,-5.4367,-5.4397,-5.4495,-5.4323,-5.4797,-5.481,-5.4822,-5.4935,-5.4961,-5.4983,0,0,0,0,0,-5.3713,-5.3869,-5.3845,-5.3878,-5.4044,-5.418,-5.4202,-5.42,-5.4133,-5.4208,-5.4238,-5.4194,-5.4466,-5.4384,-5.4417,-5.452,-5.4791,-5.4806,-5.4821,-5.4925,-5.4956,-5.4982,0,0,0,0,0,0,-5.3808,-5.3878,-5.3852,-5.4036,-5.4103,-5.4167,-5.4263,-5.4233,-5.432,-5.4307,-5.43,-5.4318,-5.4484,-5.4517,-5.4425,-5.4713,-5.4618,-5.464,-5.4686,-5.4716,-5.4739,-5.4728,-5.4333,0,0,0,0,0,-5.385,-5.3956,-5.4011,-5.4168,-5.4203,-5.4227,-5.4287,-5.428,-5.4349,-5.4376,-5.4417,-5.4486,-5.4586,-5.4652,-5.4747,-5.4939,-5.4955,-5.5026,-5.505,-5.5069,-5.5089,-5.5193,-5.5226,-5.4878,-5.4878,-5.4878,0,0,-5.3939,-5.399,-5.4057,-5.4188,-5.4239,-5.4349,-5.4252,-5.4371,-5.4452,-5.4394,-5.4548,-5.458,-5.4655,-5.4832,-5.4912,-5.4866,-5.5188,-5.5089,-5.5104,-5.5113,-5.5212,-5.5245,-5.5275,-5.4889,-5.4887,-5.4885,0,0,-5.4156,-5.4206,-5.4342,-5.4395,-5.4474,-5.4489,-5.4522,-5.4591,-5.4611,-5.4765,-5.4724,-5.4819,-5.4993,-5.5048,-5.5099,-5.5338,-5.5302,-5.5369,-5.5493,-5.5595,-5.5623,-5.5647,-5.5733,-5.5764,-5.5388,-5.5389,-5.5389,0,-5.4257,-5.4421,-5.4416,-5.454,-5.4598,-5.4551,-5.4689,-5.4741,-5.4846,-5.4888,-5.4834,-5.5051,-5.5098,-5.5288,-5.5346,-5.5389,-5.5426,-5.5361,-5.5619,-5.5643,-5.5666,-5.5748,-5.578,-5.5396,-5.5395,-5.5395,-5.5394,0,-5.454,-5.4654,-5.4755,-5.4859,-5.4929,-5.5059,-5.5074,-5.5145,-5.5132,-5.5153,-5.531,-5.5365,-5.5471,-5.5515,-5.5503,-5.5703,-5.5672,-5.5619,-5.5523,-5.5707,-5.5784,-5.5815,-5.5407,-5.5405,-5.5402,-5.54,0,0,-5.4823,-5.4923,-5.496,-5.5007,-5.509,-5.5178,-5.5306,-5.541,-5.5471,-5.5545,-5.5652,-5.58,-5.5752,-5.581,-5.5804,-5.5893,-5.608,-5.5829,-5.5831,-5.5875,-5.6304,-5.6344,-5.638,-5.6055,-5.6061,-5.6066,-5.6298,0,-5.5047,-5.5272,-5.5271,-5.5479,-5.5584,-5.5541,-5.5652,-5.5715,-5.5738,-5.583,-5.5854,-5.596,-5.5888,-5.5923,-5.6009,-5.6039,-5.6166,-5.6022,-5.6155,-5.616,-5.6139,-5.642,-5.6463,-5.6679,-5.6328,-5.6333,-5.6336,0,-5.5339,-5.5424,-5.5642,-5.571,-5.5754,-5.5855,-5.595,-5.6039,-5.6109,-5.6119,-5.6184,-5.6164,-5.6294,-5.6194,-5.6372,-5.6274,-5.6328,-5.6351,-5.6359,-5.6373,-5.626,-5.6442,-5.6748,-5.6781,-5.6383,-5.638,-5.6376,0,-5.5524,-5.5693,-5.5845,-5.5886,-5.597,-5.6041,-5.6079,-5.6143,-5.6206,-5.6289,-5.633,-5.6426,-5.648,-5.6555,-5.6561,-5.6487,-5.6741,-5.6641,-5.6753,-5.6754,-5.681,-5.6806,-5.713,-5.6843,-5.6843,-5.6842,-5.6842,0,-5.5775,-5.5911,-5.593,-5.6024,-5.6174,-5.6172,-5.632,-5.6352,-5.6409,-5.6508,-5.6476,-5.6569,-5.6572,-5.6667,-5.6673,-5.682,-5.6844,-5.6856,-5.6856,-5.686,-5.6858,-5.6896,-5.6881,-5.6851,-5.6849,-5.6847,-5.6846,0,-5.6008,-5.6026,-5.619,-5.6256,-5.6275,-5.6383,-5.6439,-5.6528,-5.6548,-5.6673,-5.6703,-5.6733,-5.6844,-5.6858,-5.6986,-5.699,-5.7168,-5.7151,-5.7145,-5.7142,-5.7254,-5.7244,-5.7614,-5.7662,-5.7344,-5.7347,-5.7349,0,-5.6168,-5.6271,-5.6348,-5.6413,-5.6455,-5.6559,-5.6622,-5.6624,-5.6692,-5.678,-5.6859,-5.6966,-5.7052,-5.7231,-5.7264,-5.7363,-5.7349,-5.7472,-5.7363,-5.7364,-5.7352,-5.7346,-5.7357,-5.7493,-5.7496,-5.7499,-5.7502,0,-5.645,-5.6454,-5.6547,-5.6645,-5.6723,-5.6799,-5.6871,-5.6925,-5.6936,-5.7013,-5.7127,-5.7194,-5.7326,-5.7433,-5.753,-5.7568,-5.7538,-5.7535,-5.7567,-5.7572,-5.7564,-5.7571,-5.7203,-5.7527,-5.7524,-5.7523,-5.7521,-5.752,-5.6652,-5.6742,-5.681,-5.6916,-5.697,-5.7038,-5.7126,-5.7156,-5.7251,-5.7359,-5.7354,-5.7479,-5.7546,-5.7673,-5.7718,-5.7816,-5.7775,-5.782,-5.7832,-5.7843,-5.7855,-5.7548,-5.7833,-5.7832,-5.7832,-5.7831,-5.7831,0,-5.6932,-5.6974,-5.7072,-5.7174,-5.7257,-5.7221,-5.7298,-5.737,-5.7481,-5.7547,-5.7632,-5.7763,-5.7867,-5.7908,-5.801,-5.808,-5.8068,-5.8106,-5.8102,-5.8111,-5.7885,-5.7848,-5.8114,-5.8114,-5.8114,-5.8114,-5.8114,-5.8114,-5.7088,-5.7239,-5.7251,-5.7428,-5.7469,-5.7592,-5.764,-5.7702,-5.7755,-5.7902,-5.7988,-5.8015,-5.8071,-5.8176,-5.827,-5.8279,-5.8319,-5.8363,-5.8367,-5.8155,-5.8127,-5.81,-5.8065,-5.8372,-5.8372,-5.8585,-5.8587,-5.8588]}]]